Location: Cluny
(50.9333°N, 112.8167°W)
Time: 01:17:25
(UTC-07:00)

Hamsat - Visible Passes

Search period start: 29 January 2015 00:00
Search period end: 08 February 2015 00:00
Orbit: 590 x 626 km, 97.6° (Epoch: 28 January)

Date Brightness Start Highest point End Pass type
(mag) Time Alt. Az. Time Alt. Az. Time Alt. Az.
29 Jan ? 04:55:54 10° ENE 04:57:39 13° E 04:59:35 10° ESE visible
29 Jan ? 06:30:03 10° NNE 06:34:14 80° WNW 06:38:24 10° SSW visible
30 Jan ? 05:08:48 10° NE 05:11:31 17° E 05:14:19 10° SE visible
30 Jan ? 06:43:45 10° N 06:47:52 58° WNW 06:51:58 10° SSW visible
31 Jan ? 05:22:02 10° NE 05:25:20 23° E 05:28:41 10° SE visible
31 Jan ? 06:57:30 10° N 07:01:29 43° WNW 07:05:26 10° SW visible
31 Jan ? 17:55:30 10° SSW 17:59:21 32° W 18:03:10 10° NNW visible
01 Feb ? 05:35:25 10° NNE 05:39:07 30° E 05:42:50 10° SSE visible
01 Feb ? 07:11:18 10° N 07:15:05 32° WNW 07:18:47 10° SW visible
01 Feb ? 18:09:36 10° SSW 18:13:07 24° W 18:16:34 10° NW visible
02 Feb ? 05:48:54 10° NNE 05:52:51 40° E 05:56:49 10° SSE visible
02 Feb ? 07:25:11 10° N 07:28:38 25° WNW 07:32:01 10° WSW visible
02 Feb ? 18:23:54 10° SW 18:26:56 18° W 18:29:50 10° NW visible
03 Feb ? 06:02:26 10° NNE 06:06:33 56° E 06:10:41 10° S visible
03 Feb ? 18:38:30 10° WSW 18:40:46 14° W 18:42:51 10° WNW visible
04 Feb ? 06:16:02 10° NNE 06:20:14 77° ESE 06:24:25 10° S visible
05 Feb ? 04:55:30 10° ENE 04:57:19 13° E 04:59:19 10° ESE visible
05 Feb ? 06:29:41 10° NNE 06:33:53 79° WNW 06:38:04 10° SSW visible
06 Feb ? 05:08:24 10° NE 05:11:09 17° E 05:14:00 10° SE visible
06 Feb ? 06:43:22 10° N 06:47:30 58° WNW 06:51:36 10° SSW visible
07 Feb ? 05:21:37 10° NE 05:24:57 23° E 05:28:20 10° SE visible
07 Feb ? 06:57:06 10° N 07:01:05 43° WNW 07:05:03 10° SW visible
